(416) Vaticana
ephemeris date magn radius delta ra dec elong phase
Today26 Jul 202612.92.435 AU2.930 AU11h50m+09°18'51.7°19.1°
Opposition2 Aug 202710.82.342 AU1.368 AU21h21m-37°52'158.7°9.1°
(416) Vaticana - 2026-07-26
astro.vanbuitenen.nl


 
-1 year
-1 month
-1 day
Now
+1 day
+1 month
+1 year

The interactive orbit chart above shows the body's path through the solar system and its position at the given date. Green and blue lines are shown perpendicular to the ecliptic plane: Green if the path is above the ecliptic plane, blue if it is below. (Left-click and drag to rotate the view; Right-click and drag to move the view; Use scroll wheel to zoom in our out.)

The orbital elements of Vaticana are:

            e (Eccentricity)                : 0.2198384
            a (Semimajor axis)              : 2.7907824
            i (Inclination)                 : 12.83238
            Ω (Longitude of ascending node) : 57.89949
            ω (Argument of perihelion)      : 200.27474
            M (Mean anomaly)                : 305.76802
            Epoch                           : 2026 Jun 09

            L (Longitude of perihelion)     : 77.70768
            B (Latitude of perihelion)      : -4.41399
            P (Orbital period in years)     : 4.66            
        

The light curve chart below shows the estimated development of the minor planet's magnitude.


The all-sky chart below shows the path of the minor planet over the same period as the light curve. The current position is marked yellow.





The following chart shows the path of the minor planet in the next few days. The field of view is optimized for (~10x50) binoculars and finderscopes.




Ephemerides:
Date       Time       RA (2000)    DEC (2000)    delta   radius  elong  phase   PA    magn
2026-07-26 00:00 UT   11 50 05.3   +09 18 04     2.930    2.435   51.7   19.1   108   12.9 
2026-07-26 13:21 UT   11 50 52.5   +09 10 45     2.934    2.434   51.4   19.0   108   12.9 
2026-07-27 00:00 UT   11 51 30.2   +09 04 55     2.937    2.433   51.2   19.0   108   12.9 
2026-07-28 00:00 UT   11 52 55.5   +08 51 44     2.945    2.431   50.6   18.8   107   12.9 
2026-07-29 00:00 UT   11 54 21.1   +08 38 32     2.952    2.429   50.1   18.7   107   12.9 
2026-07-30 00:00 UT   11 55 47.2   +08 25 18     2.959    2.427   49.6   18.6   107   12.9 
2026-07-31 00:00 UT   11 57 13.6   +08 12 02     2.966    2.425   49.0   18.4   107   12.9 
2026-08-01 00:00 UT   11 58 40.5   +07 58 45     2.973    2.422   48.5   18.3   107   12.9 
2026-08-02 00:00 UT   12 00 07.7   +07 45 26     2.980    2.420   48.0   18.1   107   12.9 
2026-08-03 00:00 UT   12 01 35.3   +07 32 06     2.986    2.418   47.4   18.0   107   12.9 
2026-08-04 00:00 UT   12 03 03.3   +07 18 44     2.993    2.416   46.9   17.9   107   12.9 
2026-08-05 00:00 UT   12 04 31.7   +07 05 21     3.000    2.414   46.4   17.7   107   12.9 
2026-08-06 00:00 UT   12 06 00.4   +06 51 57     3.006    2.412   45.8   17.6   107   12.9 
2026-08-07 00:00 UT   12 07 29.6   +06 38 31     3.013    2.410   45.3   17.4   107   12.9 
2026-08-08 00:00 UT   12 08 59.1   +06 25 04     3.019    2.408   44.8   17.3   107   12.9 
2026-08-09 00:00 UT   12 10 28.9   +06 11 35     3.026    2.406   44.3   17.1   107   12.9 
2026-08-10 00:00 UT   12 11 59.2   +05 58 05     3.032    2.404   43.7   17.0   107   12.9 
2026-08-11 00:00 UT   12 13 29.8   +05 44 34     3.038    2.402   43.2   16.8   106   12.9 
2026-08-12 00:00 UT   12 15 00.8   +05 31 02     3.044    2.400   42.7   16.6   106   12.9 
2026-08-13 00:00 UT   12 16 32.1   +05 17 29     3.050    2.398   42.2   16.5   106   12.9 
2026-08-14 00:00 UT   12 18 03.8   +05 03 54     3.056    2.396   41.7   16.3   106   12.9 


    Terminology:
            
    delta:  distance between minor planet and earth in AU
    radius: distance between minor planet and sun in AU
    magn:   magnitude (brightness) estimate    
    ra:     right ascension in hours (24h = 360deg)
    dec:    declination in degrees
    elong:  elongation in degrees (angle sun-earth-minor planet)    
    phase:  phase angle in degrees (angle sun-minor planet-earth)        
    AU:     Astronomical Unit (mean distance between earth and sun: 149597870.7 km
    

Orbital elements provided by the MPC (Minor Planet Center).
Calculations by a modified version of AAPlus, a C# implementation of the AA+ project by PJ Naughter from the algorithms presented in the book "Astronomical Algorithms" by Jean Meeus.
NGC2000 dso catalog and star labels from VizieR as provided by the Strasbourg astronomical Data Center.
Tycho2 catalog from the ESO archive.